Other Surface Observations
Issued by NWS

Home | Current Version | Previous Version | Text Only | Print | Product List | Glossary On
Versions: 1 2 3 4 5 6 7 8 9 10 11 12 13 14 15 16 17 18 19 20 21 22 23 24 25 26 27 28 29 30 31 32 33 34 35 36 37 38 39 40 41 42 43 44 45 46 47 48 49 50
000
SXUS52 KTAE 010818
OSOTAE
OSOTAE
North Florida/South Alabama/Southwest Georgia Weather Roundup
National Weather Service Tallahassee Florida
400 AM EDT TUE SEP 01 2015

Note: "fair" indicates few or no clouds below 12,000 feet with no
significant weather and/or obstructions to visibility.

!FLZ017-115-028-034-025-010900
...North Florida...

CITY           SKY/WX    TMP DP  RH WIND       PRES   REMARKS
TALLAHASSEE    PTCLDY    74  70  87 CALM      30.03S
APALACHICOLA   PTCLDY    74  74 100 N3        30.02R
PERRY          MOCLDY    76  74  92 CALM      30.03S
CROSS CITY       N/A     76  74  93 CALM      30.01F
JACKSONVILLE   MOCLDY    76  75  97 CALM      30.03S
$$

!FLZ112-006-005-002-011-010900
...Florida Panhandle...

CITY           SKY/WX    TMP DP  RH WIND       PRES   REMARKS
MARIANNA       CLEAR     73  72  96 CALM      30.03S
BONIFAY        NOT AVBL
PANAMA CITY NW FAIR      71  69  93 NW3       30.02F
TYNDALL AFB    CLEAR     73  72  95 CALM      30.02S
TYND DRONE APT FAIR      74  74 100 CALM      30.03R
DE FUNIAK SPR  FAIR      73  72  95 CALM      30.05S
EGLIN AFB      CLEAR     75  70  84 NW3       30.03F
DESTIN         CLEAR     76  72  87 CALM      30.03S
HURLBURT       CLEAR     73  70  90 N3        30.02S
CRESTVIEW      CLEAR     70  69  97 CALM      30.05S
PENSACOLA      CLEAR     76  71  85 CALM      30.03F
$$

!ALZ063-066-010900
...South Alabama...

CITY           SKY/WX    TMP DP  RH WIND       PRES   REMARKS
DOTHAN         CLEAR     71  70  96 CALM      30.09R
OZARK CAIRNS     N/A     71  69  95 E1        30.05S
FT RUCKER HELI CLEAR     69  67  93 CALM      30.04S
RUCKER HELI 3  FAIR      70  69  97 NE2       30.06F
RUCKER HELI 2  NOT AVBL
FLORALA APT    CLEAR     71  68  90 CALM      30.06S
ANDALUSIA      CLEAR     76  70  82 CALM      30.04F
TROY           CLEAR     70  68  93 CALM      30.06F
EUFALA         FAIR      70  69  97 CALM      30.05S
MOBILE         CLEAR     71  70  96 NW3       30.05S
$$

!GAZ120>161-010900
...Southwest and South Central Georgia...

CITY           SKY/WX    TMP DP  RH WIND       PRES   REMARKS
THOMASVILLE    FAIR      70  70 100 CALM      30.05S
BAINBRIDGE     CLEAR     72  70  94 CALM      30.04S
MOODY AFB      CLEAR     72  70  94 N2        30.03F
VALDOSTA       MOCLDY    73  72  96 CALM      30.04F
MOULTRIE       CLEAR     72  70  94 CALM      30.05S
BLAKELY        CLEAR     72  70  94 CALM      30.06R
ALBANY         CLEAR     74  70  87 CALM      30.07S
TIFTON         FAIR      71  71  99 CALM      30.05F
FITZGERALD     FAIR      73  71  96 CALM      30.09S
CORDELE        FAIR      73  72  96 CALM      30.08S
AMERICUS       FAIR      70  70 100 CALM      30.09S
HOMERVILLE     FAIR      75  75 100 CALM      30.05S
$$

!GMZ750-755-770-775-010900
...Coastal and Buoy Obs...

STATION/POSITION TIME  TEMP    WIND        PRES    VSBY  WAVE
                       AIR SEA DIR/SP/G                  HT/PER
                 (UTC) (F)     (DEG/KT/KT) (MB)    (MI)  (FT/S)
KEATON BEACH     0800   76      80/  4/  5 1016.7S
CEDAR KEY        0800   80     140/  9/ 10 1016.8F
C TOWER          0800   83     150/  1/  4 1016.2R
APALACHICOLA BUO 0750   84 86  120/ 10/ 12 1015.8F         2/ 4
PANAMA CITY BUOY 0750   84 86   70/  6/  8 1016.3F         2/ 4
MOBILE BUOY      0750   83 85  140/  2/  4 1017.3F         1/ 7
ORANGE BCH AL BU 0750   84 85  270/  2/  2 1016.5F         1/ 6
$$



USA.gov is the U.S. government's official web portal to all federal, state and local government web resources and services.